Location: Saluda
(35.2377°N, 82.3468°W)
Time: 07:36:29
(UTC+00:00)

Explorer 7 - Visible Passes

Search period start: 04 December 2023 00:00
Search period end: 14 December 2023 00:00
Orbit: 472 x 640 km, 50.3° (Epoch: 03 December)

Date Brightness Start Highest point End Pass type
(mag) Time Alt. Az. Time Alt. Az. Time Alt. Az.
11 Dec 9.2 00:25:12 10° NNW 00:25:31 12° NNW 00:25:31 12° NNW visible
12 Dec 8.8 00:21:22 10° NW 00:22:22 17° NNW 00:22:22 17° NNW visible
13 Dec 8.2 00:17:34 10° NW 00:19:21 26° NNW 00:19:21 26° NNW visible
